User: anonymous   Login
Location: Caltech
(34.1382°N, 118.1253°W)
Time: 17:44:51
(UTC-08:00)
Language:

RESURS DK-1 - Orbit

View from above orbital plane
View from above orbital plane
View from above satellite
View from above satellite

Ground track
Ground track

The orbit data is extracted from the following two-line orbital elements,

1 29228U 06021A   17052.90542165  .00000262  00000-0  27319-4 0  9995
2 29228  69.9358  31.3644 0004665 198.9721 161.1267 15.02094339590794
Epoch (UTC): 21 February 2017 21:43:48
Eccentricity: 0.0004665
inclination: 69.9358°
perigee height: 557 km
apogee height: 563 km
right ascension of ascending node: 31.3644°
argument of perigee: 198.9721°
revolutions per day: 15.02094339
mean anomaly at epoch: 161.1267°
orbit number at epoch: 59079

The dashed part of the orbit path shows where the satellite is in the earth's shadow,  

DLR